Location: Sternwarte_Laufen
(47.9344°N, 12.9346°E)
Time: 05:44:25
(UTC+02:00)

N. Korean satellite - Visible Passes

Search period start: 26 September 2017 00:00
Search period end: 06 October 2017 00:00
Orbit: 461 x 516 km, 97.2° (Epoch: 25 September)

Date Brightness Start Highest point End Pass type
(mag) Time Alt. Az. Time Alt. Az. Time Alt. Az.
26 Sep 9.2 19:54:13 10° SSW 19:57:22 25° W 20:00:29 10° NW visible
27 Sep 8.0 19:30:27 10° S 19:34:02 45° W 19:37:37 10° NNW visible
29 Sep 10.0 20:19:22 10° WSW 20:21:23 14° W 20:23:24 10° WNW visible
30 Sep 9.2 19:54:54 10° SSW 19:57:58 24° W 20:01:01 10° NW visible
01 Oct 8.0 19:31:05 10° S 19:34:37 44° W 19:38:08 10° NNW visible
03 Oct 10.0 20:20:04 10° WSW 20:21:57 13° W 20:23:49 10° WNW visible
04 Oct 9.3 19:55:30 10° SSW 19:58:30 24° W 20:01:29 10° NW visible
05 Oct 8.0 19:31:39 10° S 19:35:09 43° W 19:38:37 10° NNW visible
